GW1734 Weather Reports


time (UTC)temp
F
wind
direction
speed
knots
gust
knots
rain 1hr
in
rain 24hr
in
rain mn
in
humidity
%
barometer
mb
20260503213152 88 304 0.0 0.0 0.00 0.00 0.00 36 1009.5
20260503212649 88 277 0.0 0.0 0.00 0.00 0.00 38 1009.4
20260503212146 89 266 0.0 0.0 0.00 0.00 0.00 34 1009.4
20260503211644 88 123 0.0 0.0 0.00 0.00 0.00 36 1009.5
20260503211139 88 126 0.0 0.0 0.00 0.00 0.00 33 1009.6
20260503210636 88 181 0.0 0.0 0.00 0.00 0.00 33 1009.6
20260503210132 88 272 0.0 0.0 0.00 0.00 0.00 33 1009.8
20260503205628 87 293 0.0 0.0 0.00 0.00 0.00 34 1009.7
20260503205125 88 2 0.0 0.0 0.00 0.00 0.00 38 1009.8
20260503204621 88 264 0.0 0.0 0.00 0.00 0.00 36 1009.9
20260503204119 87 280 0.0 0.0 0.00 0.00 0.00 34 1010.0
20260503203616 87 336 0.0 0.0 0.00 0.00 0.00 35 1010.1
20260503203113 86 84 0.0 0.0 0.00 0.00 0.00 36 1010.0
20260503202611 86 61 0.0 0.0 0.00 0.00 0.00 36 1010.2
20260503202108 86 73 0.0 0.0 0.00 0.00 0.00 37 1010.2
20260503201606 86 276 0.0 0.0 0.00 0.00 0.00 38 1010.1
20260503201103 87 104 0.9 1.7 0.00 0.00 0.00 36 1010.4
20260503200600 86 345 0.0 0.0 0.00 0.00 0.00 45 1010.4
20260503200056 87 95 0.0 0.0 0.00 0.00 0.00 33 1010.4
20260503195553 86 135 0.0 0.9 0.00 0.00 0.00 37 1010.6
20260503195050 86 279 0.0 0.0 0.00 0.00 0.00 36 1010.7
20260503194547 86 243 0.0 0.0 0.00 0.00 0.00 40 1010.6
20260503194047 85 288 0.0 0.0 0.00 0.00 0.00 38 1010.9
20260503193544 85 105 0.0 0.0 0.00 0.00 0.00 39 1010.8
20260503193039 86 31 0.0 0.0 0.00 0.00 0.00 38 1010.6
20260503192536 86 272 0.0 0.0 0.00 0.00 0.00 38 1010.9
20260503192031 85 101 0.0 0.9 0.00 0.00 0.00 42 1010.9
20260503191528 85 21 0.0 0.0 0.00 0.00 0.00 42 1010.5
20260503191025 85 295 0.0 0.0 0.00 0.00 0.00 40 1011.0
20260503190522 84 71 0.0 0.0 0.00 0.00 0.00 39 1010.9
20260503190019 84 26 0.0 0.0 0.00 0.00 0.00 41 1011.1
20260503185515 84 63 0.0 0.0 0.00 0.00 0.00 43 1011.0
20260503185015 85 62 0.0 2.6 0.00 0.00 0.00 44 1011.2
20260503184512 84 254 0.0 0.0 0.00 0.00 0.00 45 1011.0
20260503184008 84 68 0.0 0.0 0.00 0.00 0.00 44 1011.0
20260503183505 83 256 0.0 0.0 0.00 0.00 0.00 46 1011.1
20260503183002 84 339 0.0 0.0 0.00 0.00 0.00 47 1011.1
20260503182500 84 306 0.0 0.0 0.00 0.00 0.00 47 1011.2
20260503181958 84 264 0.0 0.0 0.00 0.00 0.00 43 1011.4
20260503181455 83 229 0.0 0.0 0.00 0.00 0.00 42 1011.2
20260503180950 82 259 0.0 0.0 0.00 0.00 0.00 42 1011.2
20260503180449 82 238 0.0 0.0 0.00 0.00 0.00 47 1011.4
20260503175945 82 275 0.0 0.0 0.00 0.00 0.00 49 1011.4
20260503175444 82 268 0.0 0.0 0.00 0.00 0.00 47 1011.3
20260503174939 81 261 0.0 0.0 0.00 0.00 0.00 51 1011.2
20260503174437 80 314 0.0 0.0 0.00 0.00 0.00 50 1011.2
20260503173932 80 305 0.0 0.0 0.00 0.00 0.00 48 1011.2
20260503173428 80 314 0.0 0.0 0.00 0.00 0.00 52 1011.5
20260503172925 80 36 0.0 0.0 0.00 0.00 0.00 49 1011.5
20260503172423 79 298 0.0 0.0 0.00 0.00 0.00 53 1011.4
20260503171919 79 18 0.0 0.0 0.00 0.00 0.00 53 1011.5
20260503171416 78 319 0.0 0.0 0.00 0.00 0.00 53 1011.8
20260503170913 78 338 0.0 0.0 0.00 0.00 0.00 57 1011.9
20260503170409 77 346 0.0 0.0 0.00 0.00 0.00 52 1011.8
20260503150802 65 343 0.0 0.0 0.00 0.00 0.00 83 1012.1
20260503150257 63 317 0.0 0.0 0.00 0.00 0.00 93 1012.3
20260503140222 52 282 0.0 0.0 0.00 0.00 0.00 99 1012.4
20260503131152 47 295 0.0 0.0 0.00 0.00 0.00 99 1012.2
20260503130649 47 295 0.0 0.0 0.00 0.00 0.00 99 1012.1
20260503130147 47 295 0.0 0.0 0.00 0.00 0.00 99 1012.3
20260503120112 48 292 0.0 0.0 0.00 0.00 0.00 99 1012.3
20260503110539 48 300 0.0 0.0 0.00 0.00 0.00 99 1012.7
20260503090426 49 295 0.0 0.0 0.00 0.00 0.00 99 1012.9
20260503081353 50 295 0.0 0.0 0.00 0.00 0.00 99 1012.8
20260503080849 51 295 0.0 0.0 0.00 0.00 0.00 99 1013.0
20260503080347 51 293 0.0 0.0 0.00 0.00 0.00 99 1013.1
20260503072823 52 290 0.0 0.0 0.00 0.00 0.00 99 1013.0
20260503072320 51 299 0.0 0.0 0.00 0.00 0.00 99 1013.1
20260503071816 52 299 0.0 0.0 0.00 0.00 0.00 99 1012.9
20260503071314 52 299 0.0 0.0 0.00 0.00 0.00 99 1013.1
20260503070810 52 296 0.0 0.0 0.00 0.00 0.00 99 1013.0
20260503070308 53 292 0.0 0.0 0.00 0.00 0.00 99 1013.1
20260503060227 54 299 0.0 0.0 0.00 0.00 0.00 99 1013.0
20260503054714 55 298 0.0 0.0 0.00 0.00 0.00 98 1013.4
20260503054211 56 299 0.0 0.0 0.00 0.00 0.00 98 1013.3
20260503053709 56 277 0.0 0.0 0.00 0.00 0.00 98 1013.2
20260503053207 56 297 0.0 0.0 0.00 0.00 0.00 98 1013.0
20260503052703 56 298 0.0 0.0 0.00 0.00 0.00 98 1013.2
20260503052200 56 293 0.0 0.0 0.00 0.00 0.00 97 1013.2
20260503051655 56 305 0.0 0.0 0.00 0.00 0.00 97 1013.2
20260503051153 57 299 0.0 0.0 0.00 0.00 0.00 97 1013.3
20260503050649 57 288 0.0 0.0 0.00 0.00 0.00 96 1013.3
20260503050146 57 285 0.0 0.0 0.00 0.00 0.00 96 1013.3
20260503045643 57 286 0.0 0.0 0.00 0.00 0.00 95 1013.4
20260503045141 58 293 0.0 0.0 0.00 0.00 0.00 95 1013.5
20260503044637 57 293 0.0 0.0 0.00 0.00 0.00 94 1013.4
20260503044135 58 309 0.0 0.0 0.00 0.00 0.00 94 1013.3
20260503043631 58 291 0.0 0.0 0.00 0.00 0.00 93 1013.2
20260503043128 59 282 0.0 0.0 0.00 0.00 0.00 93 1013.3
20260503042625 59 255 0.0 0.0 0.00 0.00 0.00 93 1013.4
20260503042121 60 323 0.0 0.0 0.00 0.00 0.00 91 1013.4
20260503041617 60 272 0.0 0.0 0.00 0.00 0.00 91 1013.4
20260503041115 60 209 0.0 0.0 0.00 0.00 0.00 91 1013.3
20260503040612 60 3 0.0 0.0 0.00 0.00 0.00 90 1012.9
20260503040110 60 270 0.0 0.0 0.00 0.00 0.00 89 1013.3
20260503035606 61 315 0.0 0.0 0.00 0.00 0.00 89 1013.0
20260503035104 61 311 0.0 0.0 0.00 0.00 0.00 87 1012.8
20260503034601 62 262 0.0 0.0 0.00 0.00 0.00 85 1012.7
20260503034058 63 262 0.0 0.0 0.00 0.00 0.00 83 1012.6
20260503033555 64 209 0.0 0.0 0.00 0.00 0.00 82 1012.5
20260503033053 64 342 0.0 0.0 0.00 0.00 0.00 83 1012.5
20260503032551 64 264 0.0 0.0 0.00 0.00 0.00 82 1012.6
20260503032049 64 77 0.0 0.0 0.00 0.00 0.00 83 1012.5
20260503031546 64 315 0.0 0.0 0.00 0.00 0.00 82 1012.5
20260503031044 64 68 0.0 0.0 0.00 0.00 0.00 82 1012.5
20260503030539 65 4 0.0 0.0 0.00 0.00 0.00 81 1012.5
20260503030037 65 300 0.0 0.0 0.00 0.00 0.00 81 1012.3
20260503025533 65 249 0.0 0.0 0.00 0.00 0.00 80 1012.3
20260503025032 66 283 0.0 0.0 0.00 0.00 0.00 82 1012.4
20260503024527 67 304 0.0 0.0 0.00 0.00 0.00 81 1012.2
20260503024025 68 295 0.0 0.0 0.00 0.00 0.00 80 1012.1
20260503023521 68 280 0.0 0.0 0.00 0.00 0.00 79 1012.0
20260503023019 69 294 0.0 0.0 0.00 0.00 0.00 78 1011.9
20260503022515 69 286 0.0 0.0 0.00 0.00 0.00 77 1011.4
20260503022009 70 286 0.0 0.0 0.00 0.00 0.00 77 1011.4
20260503021506 70 286 0.0 0.0 0.00 0.00 0.00 77 1011.3
20260503021003 71 285 0.0 0.0 0.00 0.00 0.00 78 1011.3
20260503020501 71 262 0.0 0.0 0.00 0.00 0.00 74 1011.4
20260503015957 71 262 0.0 0.0 0.00 0.00 0.00 72 1011.4
20260503015454 72 262 0.0 0.0 0.00 0.00 0.00 72 1011.2
20260503014950 73 256 0.0 0.0 0.00 0.00 0.00 68 1011.4
20260503014447 73 273 0.0 0.0 0.00 0.00 0.00 62 1011.2
20260503013945 74 291 0.0 0.0 0.00 0.00 0.00 63 1011.3
20260503013442 74 286 0.0 0.0 0.00 0.00 0.00 64 1011.2
20260503012939 73 282 0.0 0.0 0.00 0.00 0.00 64 1011.4
20260503012437 73 271 0.0 0.0 0.00 0.00 0.00 65 1011.2
20260503011933 73 285 0.0 0.0 0.00 0.00 0.00 63 1011.3
20260503011430 73 8 0.0 0.0 0.00 0.00 0.00 62 1011.3
20260503010927 73 294 0.0 0.0 0.00 0.00 0.00 62 1011.0
20260503010424 73 290 0.0 0.0 0.00 0.00 0.00 64 1011.3
20260503005921 74 14 0.0 0.0 0.00 0.00 0.00 62 1011.3
20260503005418 74 289 0.0 0.0 0.00 0.00 0.00 64 1011.2
20260503004915 74 298 0.0 0.0 0.00 0.00 0.00 61 1011.4
20260503004412 74 332 0.0 0.0 0.00 0.00 0.00 63 1011.4
20260503003909 74 5 0.0 0.0 0.00 0.00 0.00 63 1011.2
20260503003406 74 314 0.0 0.0 0.00 0.00 0.00 64 1011.4
20260503002903 74 291 0.0 0.0 0.00 0.00 0.00 63 1011.4
20260503002400 74 330 0.0 0.0 0.00 0.00 0.00 63 1011.2
20260503001856 73 329 0.9 4.3 0.00 0.00 0.00 60 1011.1
20260503001353 74 300 0.0 0.0 0.00 0.00 0.00 59 1011.3
20260503000851 74 310 0.0 0.0 0.00 0.00 0.00 59 1011.3
20260503000348 74 334 0.0 0.0 0.00 0.00 0.00 60 1011.6
20260502235845 74 343 0.0 0.0 0.00 0.00 0.00 61 1011.3
20260502235342 74 299 0.0 0.0 0.00 0.00 0.00 61 1011.6
20260502234838 74 294 0.0 0.0 0.00 0.00 0.00 62 1011.6
20260502234335 73 321 0.0 0.0 0.00 0.00 0.00 61 1011.8
20260502233832 74 324 0.0 0.9 0.00 0.00 0.00 58 1011.8
20260502233328 74 304 0.0 0.0 0.00 0.00 0.00 63 1011.9
20260502232825 74 314 0.0 0.0 0.00 0.00 0.00 62 1012.0
20260502232322 74 282 0.0 0.0 0.00 0.00 0.00 61 1012.2
20260502231818 74 347 0.0 0.0 0.00 0.00 0.00 60 1012.0
20260502231316 73 308 0.0 0.0 0.00 0.00 0.00 59 1012.0
20260502230814 73 283 0.0 0.0 0.00 0.00 0.00 62 1012.1
20260502230312 73 324 0.0 0.0 0.00 0.00 0.00 59 1012.0
20260502225808 73 304 0.0 0.0 0.00 0.00 0.00 62 1012.0
20260502225305 73 330 0.0 0.0 0.00 0.00 0.00 61 1012.1
20260502224802 73 332 2.6 5.2 0.00 0.00 0.00 58 1012.3
20260502224258 73 298 0.0 0.0 0.00 0.00 0.00 61 1012.5
20260502223755 73 329 0.0 0.0 0.00 0.00 0.00 60 1012.5
20260502223254 73 323 0.0 0.9 0.00 0.00 0.00 62 1012.5
20260502222751 72 296 0.0 0.9 0.00 0.00 0.00 60 1012.8
20260502222248 72 294 0.0 0.0 0.00 0.00 0.00 63 1012.7
20260502221744 73 243 0.0 0.9 0.00 0.00 0.00 64 1012.7
20260502221240 72 264 0.0 0.0 0.00 0.00 0.00 65 1013.1
20260502220737 72 312 0.0 0.9 0.00 0.00 0.00 64 1013.1
20260502220233 71 339 0.0 0.0 0.00 0.00 0.00 64 1013.2
20260502215730 71 322 0.0 0.0 0.00 0.00 0.00 65 1013.2
20260502215227 72 50 0.0 0.0 0.00 0.00 0.00 65 1013.5
20260502214724 71 319 0.0 0.0 0.00 0.00 0.00 64 1013.5
20260502214221 71 262 0.0 0.0 0.00 0.00 0.00 64 1013.4
20260502213719 71 354 0.0 0.0 0.00 0.00 0.00 65 1013.4